Tracking 28323 objects as of 3-Dec-2023
HD Live streaming from Space Station
objects crossing your sky now

CZ-2C R/B

Track CZ-2C R/B now!
10-day predictions


NORAD ID: 39364
Int'l Code: 2013-059B
Perigee: 393.5 km
Apogee: 427.7 km
Inclination: 97.1 °
Period: 92.6 minutes
Semi major axis: 6781 km
RCS: Unknown
Launch date: October 29, 2013
Source: People's Republic of China (PRC)
Launch site: Taiyaun Space Center, China (TSC)

Note: This is a ROCKET BODY
Your satellite tracking list
Your tracking list is empty




NASA's NSSDC Master Catalog

Two Line Element Set (TLE):
1 39364U 13059B   23336.81706823  .00049098  00000-0  73241-3 0  9995
2 39364  97.0791  20.6528 0025204 193.3434 166.7157 15.54551122562314
Source of the keplerian elements: AFSPC